• In Deutschland
  • Länderverzeichnis
  • Für 7 Tage
  • Wassertemperatur
  • Satellitenkarten
  • Wetterkarte
  • Widgets
  • user-avatar
    Anmelden

    Stündliche Wetter Shaki

    Heute, 20 Oktober, Freitag

    Zeit Temperatur Niederschläge Wind Luftdruck Luftfeuchtigkeit
    00:00 +14°C° 0 mm 1 m/S 738 mmHg 65%
    01:00 +14°C° 0 mm 1 m/S 738 mmHg 64%
    02:00 +13°C° 0 mm 1 m/S 737 mmHg 64%
    03:00 +13°C° 0 mm 1 m/S 737 mmHg 64%
    04:00 +13°C° 0 mm 1 m/S 737 mmHg 63%
    05:00 +13°C° 0 mm 1 m/S 737 mmHg 62%
    06:00 +13°C° 0 mm 1 m/S 737 mmHg 61%
    07:00 +15°C° 0 mm 1 m/S 737 mmHg 57%
    08:00 +16°C° 0 mm 1 m/S 737 mmHg 53%
    09:00 +20°C° 0 mm 1 m/S 737 mmHg 49%
    10:00 +20°C° 0 mm 1 m/S 737 mmHg 47%
    11:00 +21°C° 0 mm 1 m/S 737 mmHg 45%
    12:00 +22°C° 0 mm 1 m/S 737 mmHg 43%
    13:00 +22°C° 0 mm 1 m/S 737 mmHg 43%
    14:00 +22°C° 0 mm 1 m/S 736 mmHg 43%
    15:00 +22°C° 0 mm 1 m/S 736 mmHg 44%
    16:00 +21°C° 0 mm 1 m/S 736 mmHg 49%
    17:00 +20°C° 0 mm 1 m/S 737 mmHg 54%
    18:00 +18°C° 0 mm 1 m/S 737 mmHg 59%
    19:00 +18°C° 0 mm 1 m/S 737 mmHg 59%
    20:00 +16°C° 0 mm 1 m/S 737 mmHg 59%
    21:00 +16°C° 0 mm 2 m/S 737 mmHg 59%
    22:00 +16°C° 0 mm 2 m/S 737 mmHg 59%
    23:00 +15°C° 0 mm 1 m/S 737 mmHg 60%

    Morgen, 21 Oktober, Samstag

    Zeit Temperatur Niederschläge Wind Luftdruck Luftfeuchtigkeit
    00:00 +15°C° 0 mm 1 m/S 737 mmHg 60%
    01:00 +14°C° 0 mm 1 m/S 737 mmHg 61%
    02:00 +14°C° 0 mm 1 m/S 737 mmHg 61%
    03:00 +14°C° 0 mm 1 m/S 737 mmHg 61%
    04:00 +14°C° 0 mm 1 m/S 737 mmHg 60%
    05:00 +13°C° 0 mm 1 m/S 737 mmHg 59%
    06:00 +13°C° 0 mm 1 m/S 737 mmHg 59%
    07:00 +15°C° 0 mm 1 m/S 737 mmHg 54%
    08:00 +18°C° 0 mm 1 m/S 737 mmHg 49%
    09:00 +19°C° 0 mm 1 m/S 737 mmHg 44%
    10:00 +20°C° 0 mm 1 m/S 736 mmHg 41%
    11:00 +21°C° 0 mm 1 m/S 736 mmHg 39%
    12:00 +22°C° 0 mm 1 m/S 736 mmHg 37%
    13:00 +22°C° 0 mm 1 m/S 735 mmHg 36%
    14:00 +22°C° 0 mm 1 m/S 735 mmHg 36%
    15:00 +22°C° 0 mm 1 m/S 735 mmHg 36%
    16:00 +21°C° 0 mm 1 m/S 735 mmHg 41%
    17:00 +19°C° 0 mm 1 m/S 735 mmHg 45%
    18:00 +18°C° 0 mm 1 m/S 735 mmHg 50%
    19:00 +16°C° 0 mm 1 m/S 735 mmHg 49%
    20:00 +16°C° 0 mm 1 m/S 735 mmHg 49%
    21:00 +16°C° 0 mm 1 m/S 735 mmHg 48%
    22:00 +15°C° 0 mm 1 m/S 734 mmHg 46%
    23:00 +15°C° 0 mm 1 m/S 734 mmHg 45%

    übermorgen, 22 Oktober, Sonntag

    Zeit Temperatur Niederschläge Wind Luftdruck Luftfeuchtigkeit
    00:00 +15°C° 0 mm 1 m/S 734 mmHg 43%
    01:00 +14°C° 0 mm 1 m/S 734 mmHg 40%
    02:00 +14°C° 0 mm 1 m/S 734 mmHg 38%
    03:00 +14°C° 0 mm 2 m/S 734 mmHg 36%
    04:00 +14°C° 0 mm 2 m/S 734 mmHg 37%
    05:00 +14°C° 0 mm 2 m/S 733 mmHg 38%
    06:00 +14°C° 0 mm 2 m/S 733 mmHg 39%
    07:00 +15°C° 0 mm 2 m/S 733 mmHg 37%
    08:00 +17°C° 0 mm 2 m/S 733 mmHg 36%
    09:00 +19°C° 0 mm 3 m/S 733 mmHg 35%
    10:00 +20°C° 0 mm 3 m/S 733 mmHg 33%
    11:00 +20°C° 0 mm 3 m/S 732 mmHg 32%
    12:00 +21°C° 0 mm 4 m/S 732 mmHg 30%
    13:00 +21°C° 0 mm 4 m/S 731 mmHg 30%
    14:00 +21°C° 0 mm 4 m/S 731 mmHg 29%
    15:00 +21°C° 0 mm 4 m/S 730 mmHg 29%
    16:00 +20°C° 0 mm 3 m/S 730 mmHg 31%
    17:00 +18°C° 0 mm 3 m/S 730 mmHg 34%
    18:00 +17°C° 0 mm 3 m/S 731 mmHg 37%
    19:00 +16°C° 0 mm 3 m/S 731 mmHg 38%
    20:00 +16°C° 0 mm 3 m/S 731 mmHg 39%
    21:00 +16°C° 0 mm 3 m/S 731 mmHg 40%
    22:00 +14°C° 0 mm 3 m/S 731 mmHg 40%
    23:00 +14°C° 0 mm 3 m/S 731 mmHg 40%

    23 Oktober, Montag

    Zeit Temperatur Niederschläge Wind Luftdruck Luftfeuchtigkeit
    00:00 +14°C° 0 mm 4 m/S 731 mmHg 40%
    01:00 +14°C° 0 mm 4 m/S 731 mmHg 40%
    02:00 +14°C° 0 mm 4 m/S 731 mmHg 40%
    03:00 +14°C° 0 mm 4 m/S 731 mmHg 40%
    04:00 +13°C° 0 mm 4 m/S 732 mmHg 41%
    05:00 +13°C° 0 mm 4 m/S 732 mmHg 42%
    06:00 +13°C° 0 mm 3 m/S 733 mmHg 44%
    07:00 +14°C° 0 mm 4 m/S 733 mmHg 41%
    08:00 +17°C° 0 mm 4 m/S 734 mmHg 38%
    09:00 +18°C° 0 mm 4 m/S 734 mmHg 35%
    10:00 +19°C° 0 mm 4 m/S 734 mmHg 34%
    11:00 +20°C° 0 mm 4 m/S 734 mmHg 33%
    12:00 +21°C° 0 mm 3 m/S 734 mmHg 31%
    13:00 +21°C° 0 mm 3 m/S 735 mmHg 31%
    14:00 +21°C° 0 mm 2 m/S 735 mmHg 31%
    15:00 +21°C° 0 mm 2 m/S 735 mmHg 30%
    16:00 +20°C° 0 mm 2 m/S 736 mmHg 33%
    17:00 +18°C° 0 mm 2 m/S 736 mmHg 35%
    18:00 +17°C° 0 mm 2 m/S 736 mmHg 37%
    19:00 +16°C° 0 mm 3 m/S 737 mmHg 43%
    20:00 +14°C° 0 mm 3 m/S 737 mmHg 49%
    21:00 +13°C° 0 mm 4 m/S 737 mmHg 55%
    22:00 +13°C° 0 mm 4 m/S 737 mmHg 60%
    23:00 +13°C° 0 mm 3 m/S 737 mmHg 65%

    24 Oktober, Dienstag

    Zeit Temperatur Niederschläge Wind Luftdruck Luftfeuchtigkeit
    00:00 +13°C° 0 mm 3 m/S 737 mmHg 70%
    01:00 +13°C° 0 mm 3 m/S 737 mmHg 69%
    02:00 +14°C° 0 mm 2 m/S 737 mmHg 68%
    03:00 +14°C° 0 mm 2 m/S 737 mmHg 67%
    04:00 +13°C° 0 mm 2 m/S 737 mmHg 66%
    05:00 +13°C° 0 mm 1 m/S 737 mmHg 66%
    06:00 +13°C° 0 mm 1 m/S 737 mmHg 65%
    07:00 +14°C° 0 mm 1 m/S 737 mmHg 61%
    08:00 +15°C° 0 mm 1 m/S 737 mmHg 56%
    09:00 +16°C° 0 mm 1 m/S 738 mmHg 52%
    10:00 +18°C° 0 mm 1 m/S 737 mmHg 50%
    11:00 +18°C° 0 mm 2 m/S 737 mmHg 47%
    12:00 +19°C° 0 mm 2 m/S 737 mmHg 45%
    13:00 +19°C° 0 mm 2 m/S 737 mmHg 43%
    14:00 +19°C° 0 mm 2 m/S 736 mmHg 41%
    15:00 +19°C° 0 mm 2 m/S 736 mmHg 40%
    16:00 +19°C° 0 mm 1 m/S 737 mmHg 44%
    17:00 +18°C° 0 mm 1 m/S 737 mmHg 48%
    18:00 +15°C° 0 mm 1 m/S 738 mmHg 53%
    19:00 +15°C° 0 mm 1 m/S 738 mmHg 53%
    20:00 +15°C° 0 mm 1 m/S 738 mmHg 54%
    21:00 +14°C° 0 mm 2 m/S 738 mmHg 54%
    22:00 +14°C° 0 mm 2 m/S 738 mmHg 56%
    23:00 +14°C° 0 mm 2 m/S 739 mmHg 57%

    25 Oktober, Mittwoch

    Zeit Temperatur Niederschläge Wind Luftdruck Luftfeuchtigkeit
    00:00 +14°C° 0 mm 2 m/S 739 mmHg 59%
    01:00 +14°C° 0 mm 1 m/S 739 mmHg 61%
    02:00 +13°C° 0 mm 1 m/S 739 mmHg 62%
    03:00 +13°C° 0 mm 1 m/S 739 mmHg 64%
    04:00 +13°C° 0 mm 1 m/S 739 mmHg 65%
    05:00 +13°C° 0 mm 1 m/S 739 mmHg 66%
    06:00 +13°C° 0 mm 1 m/S 739 mmHg 67%
    07:00 +14°C° 0 mm 1 m/S 740 mmHg 64%
    08:00 +16°C° 0 mm 1 m/S 740 mmHg 62%
    09:00 +18°C° 0 mm 1 m/S 740 mmHg 60%
    10:00 +19°C° 0 mm 1 m/S 740 mmHg 56%
    11:00 +19°C° 0 mm 2 m/S 739 mmHg 53%
    12:00 +20°C° 0 mm 2 m/S 739 mmHg 49%
    13:00 +20°C° 0 mm 2 m/S 739 mmHg 48%
    14:00 +21°C° 0 mm 2 m/S 739 mmHg 47%
    15:00 +21°C° 0 mm 2 m/S 739 mmHg 46%
    16:00 +19°C° 0 mm 2 m/S 739 mmHg 52%
    17:00 +18°C° 0 mm 2 m/S 739 mmHg 59%
    18:00 +16°C° 0 mm 2 m/S 740 mmHg 65%
    19:00 +16°C° 0 mm 2 m/S 740 mmHg 66%
    20:00 +16°C° 0 mm 2 m/S 740 mmHg 67%
    21:00 +15°C° 0 mm 2 m/S 740 mmHg 67%
    22:00 +15°C° 0 mm 2 m/S 740 mmHg 68%
    23:00 +15°C° 0 mm 2 m/S 740 mmHg 70%
    Mehr zeigen